Regional Weather Roundup
Issued by NWS

Home | Current Version | Previous Version | Text Only | Print | Product List | Glossary Off
Versions: 1 2 3 4 5 6 7 8 9 10 11 12 13 14 15 16 17 18 19 20 21 22 23 24 25 26 27 28 29 30 31 32 33 34 35 36 37 38 39 40 41 42 43 44 45 46 47 48 49 50

000
ASUS45 KSLC 191910
RWRUT

UTAH REGIONAL WEATHER ROUNDUP
NATIONAL WEATHER SERVICE SALT LAKE CITY UT
100 PM MDT THU OCT 19 2017

UTZ001>011-023>025-192000-

NORTHERN UTAH

CITY           SKY/WX    TMP DP  RH WIND       PRES   REMARKS
BRIGHAM CITY     N/A     63  21  20 CALM      29.97F
DUGWAY         PTSUNNY   72  19  14 S3        30.02F
HILL AFB       SUNNY     65  20  18 CALM      29.97F
LOGAN            N/A     61  25  25 CALM      29.97F
OGDEN            N/A     66  22  18 CALM      29.96F
SALT LAKE CITY   N/A     68  32  26 N5        29.96F
TOOELE VALLEY    N/A     61  32  33 N3        29.97F
WENDOVER         N/A     55  23  28 E6        29.97F
WEST JORDAN      N/A     70  32  24 SE15      29.97F

$$

UTZ011>015-024>027-192000-

CENTRAL/NORTHEAST UTAH

CITY           SKY/WX    TMP DP  RH WIND       PRES   REMARKS
PROVO AIRPORT    N/A     62  36  37 W3        29.99F
MOAB/CANYONLAN   N/A     69  17  13 SE5       30.02F
DELTA            N/A     68  28  22 SE6       29.99F
PRICE            N/A     65  16  15 E6        30.07F
RICHFIELD      SUNNY     73  37  27 S13       30.00F
ROOSEVELT        N/A     61  19  20 CALM      30.09F
VERNAL           N/A     63  15  15 SE6       30.06F

$$

UTZ013>016-019>022-027-192000-

SOUTHERN UTAH

CITY           SKY/WX    TMP DP  RH WIND       PRES   REMARKS
BRYCE CANYON     N/A     62  33  33 SE18G25   30.16F
CEDAR CITY     PTSUNNY   67  42  40 NW5       30.02F
MILFORD          N/A     70  40  33 S13       29.99F
ST GEORGE        N/A     72  33  24 S3        29.92F
HANKSVILLE       N/A     66  19  16 SE3       30.05F
KANAB          SUNNY     77  32  19 S9G16     30.04F
BLANDING         N/A     64  20  19 S5        30.20F

$$

REGIONAL REPORTS     COLORADO/ARIZONA

CITY           SKY/WX    TMP DP  RH WIND       PRES   REMARKS
CRAIG, CO        N/A     69  12  11 W8        30.09F
GRAND JUNCTION PTSUNNY   66  16  14 CALM      30.05F
RIFLE, CO        N/A     64  19  17 CALM      30.07F
MONTROSE, CO     N/A     67  20  16 N5        30.10F
CORTEZ, CO     PTSUNNY   70  23  17 SW14      30.12F
COLORADO CITY    N/A     77  32  19 SE3       30.03F
PAGE, AZ       PTSUNNY   69  34  27 N7        30.00F
GRAND CANYON     N/A     70  32  24 SW12G17   30.12F
KINGMAN, AZ      N/A     83  35  18 SW20      29.94F
FLAGSTAFF, AZ    N/A     67  28  23 SW18G24   30.15F

$$

REGIONAL REPORTS    NEVADA/IDAHO/WYOMING

CITY           SKY/WX    TMP DP  RH WIND       PRES   REMARKS
LAS VEGAS, NV    N/A     82  22  11 NE5       29.86F
ELY, NY          N/A     69  18  14 MISG      30.01F
ELKO, NV         N/A     59  13  16 CALM      29.96F
POCATELLO, ID    N/A     67  26  21 E8        29.92F
BURLEY, ID       N/A     72  11   9 SW5       29.87F
FORT BRIDGER,    N/A     62  17  17 E6        30.10F
EVANSTON, WY     N/A     65  18  16 SW21      30.07F
ROCK SPRINGS,    N/A     59  11  15 VRB3      30.08F
KEMMERER, WY     N/A     63  12  14 SW3       30.09F

$$



USA.gov is the U.S. government's official web portal to all federal, state and local government web resources and services.